Location: Westminster
(33.3626°N, 96.4619°W)
Time: 18:49:04
(UTC+00:00)

Cosmos 1515 Rocket - Pass Details

Date: 04 July 2022
Orbit: 604 x 630 km, 82.5° (Epoch: 17 August)

Event Time Altitude Azimuth Distance (km) Brightness Sun altitude
Rises 10:29:17 0° 326° (NW) 2,885 7.0 -10.0°
Reaches altitude 10° 10:33:18 10° 289° (WNW) 1,967 5.8 -9.4°
Maximum altitude 10:34:20 11° 275° (W) 1,915 5.6 -9.2°
Drops below altitude 10° 10:35:21 10° 261° (W) 1,960 5.6 -9.0°
Enters shadow 10:35:40 10° 257° (WSW) 1,994 5.6 -8.9°
